This is the latest recevied weather packets stored in our database for station/object K8RLH. If no packets are shown the sender has not sent any weather packets the latest 10 day(s).
| Time | Temp. | Humidity | Pressure | Rain* | Wind** | Luminosity | Snow |
|---|---|---|---|---|---|---|---|
| 1778048859 | 18.89° C | 65% | 1016.3 hPa | 0 mm | - | 0 W/m² | - |
| 1778048556 | 18.89° C | 65% | 1016 hPa | 0 mm | - | 0 W/m² | - |
| 1778048252 | 18.89° C | 65% | 1016.1 hPa | 0 mm | - | 0 W/m² | - |
| 1778047950 | 18.89° C | 65% | 1016 hPa | 0 mm | - | 0 W/m² | - |
| 1778047648 | 18.33° C | 65% | 1015.9 hPa | 0 mm | - | 0 W/m² | - |
| 1778047345 | 18.33° C | 65% | 1015.7 hPa | 0 mm | - | 0 W/m² | - |
| 1778047041 | 18.33° C | 65% | 1015.7 hPa | 0 mm | - | 0 W/m² | - |
| 1778046738 | 18.33° C | 66% | 1015.9 hPa | 0 mm | - | 0 W/m² | - |
| 1778046436 | 18.33° C | 67% | 1015.9 hPa | 0 mm | - | 0 W/m² | - |
| 1778046131 | 18.33° C | 66% | 1015.9 hPa | 0 mm | - | 0 W/m² | - |
| 1778045829 | 18.33° C | 66% | 1016.1 hPa | 0 mm | - | 0 W/m² | - |
| 1778045528 | 18.33° C | 66% | 1016 hPa | 0 mm | - | 0 W/m² | - |
| 1778045225 | 18.89° C | 64% | 1015.8 hPa | 0 mm | - | 0 W/m² | - |
| 1778044923 | 18.89° C | 64% | 1015.8 hPa | 0 mm | - | 0 W/m² | - |
| 1778044620 | 18.89° C | 65% | 1015.8 hPa | 0 mm | - | 0 W/m² | - |
| 1778044317 | 18.33° C | 65% | 1016.1 hPa | 0 mm | - | 0 W/m² | - |
| 1778044015 | 18.33° C | 68% | 1015.9 hPa | 0 mm | - | 0 W/m² | - |
| 1778043712 | 18.89° C | 66% | 1015.8 hPa | 0 mm | - | 0 W/m² | - |
| 1778043408 | 18.89° C | 64% | 1016 hPa | 0 mm | - | 0 W/m² | - |
| 1778043105 | 18.89° C | 63% | 1016.1 hPa | 0 mm | - | 0 W/m² | - |
| 1778042803 | 18.89° C | 63% | 1016.1 hPa | 0 mm | - | 0 W/m² | - |
| 1778042499 | 18.89° C | 65% | 1016 hPa | 0 mm | - | 0 W/m² | - |
| 1778042197 | 18.89° C | 63% | 1015.9 hPa | 0 mm | - | 0 W/m² | - |
| 1778041895 | 18.89° C | 63% | 1016 hPa | 0 mm | - | 0 W/m² | - |
| 1778041593 | 18.89° C | 63% | 1016.1 hPa | 0 mm | - | 0 W/m² | - |
* Rain latest hour (hover to see other rain measurements)
** Current wind speed in m/s (hover to see current wind gust speed)